Time,TemperatureF,DewpointF,PressureIn,WindDirection,WindDirectionDegrees,WindSpeedMPH,WindSpeedGustMPH,Humidity,HourlyPrecipIn,Conditions,Clouds,dailyrainin,SoftwareType,DateUTC
2013-06-13 02:11:00,57.0,41.0,-100.00,East,90,1.0,5.0,55,-99.99,,,-99.99,,2013-06-13 06:11:00,
2013-06-13 02:44:00,58.0,48.0,-100.00,SSE,155,2.0,-999.0,70,-99.99,,,-99.99,,2013-06-13 06:44:00,
2013-06-13 03:12:00,58.0,48.0,-100.00,West,270,1.0,-999.0,70,-99.99,,,-99.99,,2013-06-13 07:12:00,
2013-06-13 03:42:00,57.0,49.0,-100.00,ENE,65,2.0,-999.0,75,-99.99,,,-99.99,,2013-06-13 07:42:00,
2013-06-13 04:01:00,56.0,51.0,-100.00,NE,55,2.0,-999.0,83,-99.99,,,-99.99,,2013-06-13 08:01:00,
2013-06-13 04:11:00,56.0,51.0,-100.00,ENE,70,2.0,-999.0,83,-99.99,,,-99.99,,2013-06-13 08:11:00,
2013-06-13 04:32:00,54.0,48.0,-100.00,NE,55,5.0,-999.0,80,-99.99,,,-99.99,,2013-06-13 08:32:00,
2013-06-13 04:43:00,54.0,48.0,-100.00,North,0,3.0,-999.0,80,-99.99,,,-99.99,,2013-06-13 08:43:00,
2013-06-13 04:52:00,54.0,48.0,-100.00,North,0,3.0,-999.0,80,-99.99,,,-99.99,,2013-06-13 08:52:00,
2013-06-13 05:32:00,53.0,47.0,-100.00,NE,45,9.0,12.0,80,-99.99,,,-99.99,,2013-06-13 09:32:00,
2013-06-13 05:42:00,53.0,47.0,-100.00,NNE,30,6.0,12.0,80,-99.99,,,-99.99,,2013-06-13 09:42:00,
2013-06-13 05:52:00,53.0,47.0,-100.00,NNE,25,5.0,8.0,80,-99.99,,,-99.99,,2013-06-13 09:52:00,
2013-06-13 06:12:00,53.0,47.0,-100.00,NNE,20,5.0,8.0,80,-99.99,,,-99.99,,2013-06-13 10:12:00,
2013-06-13 06:53:00,54.0,50.0,-100.00,NNE,20,5.0,6.0,89,-99.99,,,-99.99,,2013-06-13 10:53:00,
2013-06-13 07:02:00,54.0,50.0,-100.00,NE,45,3.0,9.0,89,-99.99,,,-99.99,,2013-06-13 11:02:00,
2013-06-13 07:12:00,54.0,50.0,-100.00,NNE,25,6.0,9.0,89,-99.99,,,-99.99,,2013-06-13 11:12:00,
2013-06-13 07:24:00,54.0,50.0,-100.00,NE,35,6.0,9.0,89,-99.99,,,-99.99,,2013-06-13 11:24:00,
2013-06-13 07:32:00,55.0,52.0,-100.00,NNE,25,7.0,9.0,89,-99.99,,,-99.99,,2013-06-13 11:32:00,
2013-06-13 07:42:00,55.0,52.0,-100.00,NNE,20,7.0,12.0,89,-99.99,,,-99.99,,2013-06-13 11:42:00,
2013-06-13 07:52:00,55.0,52.0,-100.00,ENE,65,5.0,10.0,89,-99.99,,,-99.99,,2013-06-13 11:52:00,
2013-06-13 08:01:00,55.0,52.0,-100.00,NE,40,2.0,9.0,89,-99.99,,,-99.99,,2013-06-13 12:01:00,
2013-06-13 08:12:00,55.0,52.0,-100.00,NE,40,5.0,6.0,89,-99.99,,,-99.99,,2013-06-13 12:12:00,
2013-06-13 08:35:00,59.0,56.0,-100.00,NNE,25,2.0,7.0,89,-99.99,,,-99.99,,2013-06-13 12:35:00,
2013-06-13 08:52:00,59.0,56.0,-100.00,NNE,25,5.0,9.0,89,-99.99,,,-99.99,,2013-06-13 12:52:00,
2013-06-13 09:02:00,59.0,56.0,-100.00,East,80,3.0,7.0,89,-99.99,,,-99.99,,2013-06-13 13:02:00,
2013-06-13 09:11:00,59.0,56.0,-100.00,ENE,60,3.0,8.0,89,-99.99,,,-99.99,,2013-06-13 13:11:00,
2013-06-13 09:22:00,59.0,56.0,-100.00,East,80,3.0,9.0,89,-99.99,,,-99.99,,2013-06-13 13:22:00,
2013-06-13 09:33:00,61.0,58.0,-100.00,NE,55,3.0,9.0,89,-99.99,,,-99.99,,2013-06-13 13:33:00,
2013-06-13 09:43:00,61.0,58.0,-100.00,NE,45,6.0,12.0,89,-99.99,,,-99.99,,2013-06-13 13:43:00,
2013-06-13 09:53:00,61.0,58.0,-100.00,NNE,30,7.0,9.0,89,-99.99,,,-99.99,,2013-06-13 13:53:00,
2013-06-13 10:02:00,61.0,58.0,-100.00,NE,35,8.0,15.0,89,-99.99,,,-99.99,,2013-06-13 14:02:00,
2013-06-13 10:11:00,61.0,58.0,-100.00,NE,35,8.0,15.0,89,-99.99,,,-99.99,,2013-06-13 14:11:00,
2013-06-13 10:22:00,61.0,58.0,-100.00,NE,35,10.0,18.0,89,-99.99,,,-99.99,,2013-06-13 14:22:00,
2013-06-13 10:33:00,61.0,58.0,-100.00,NNE,30,10.0,16.0,89,-99.99,,,-99.99,,2013-06-13 14:33:00,
2013-06-13 10:53:00,65.0,62.0,-100.00,NNE,20,8.0,14.0,89,-99.99,,,-99.99,,2013-06-13 14:53:00,
2013-06-13 11:02:00,65.0,62.0,-100.00,NE,35,8.0,15.0,89,-99.99,,,-99.99,,2013-06-13 15:02:00,
2013-06-13 11:12:00,65.0,62.0,-100.00,North,5,5.0,13.0,89,-99.99,,,-99.99,,2013-06-13 15:12:00,
2013-06-13 11:33:00,67.0,64.0,-100.00,ENE,65,2.0,10.0,89,-99.99,,,-99.99,,2013-06-13 15:33:00,
2013-06-13 11:43:00,67.0,64.0,-100.00,ENE,65,2.0,10.0,89,-99.99,,,-99.99,,2013-06-13 15:43:00,
2013-06-13 11:53:00,67.0,64.0,-100.00,East,90,3.0,8.0,89,-99.99,,,-99.99,,2013-06-13 15:53:00,
2013-06-13 12:12:00,67.0,64.0,-100.00,SSE,150,10.0,15.0,89,-99.99,,,-99.99,,2013-06-13 16:12:00,
2013-06-13 12:22:00,67.0,64.0,-100.00,SE,140,13.0,17.0,89,-99.99,,,-99.99,,2013-06-13 16:22:00,
2013-06-13 12:33:00,68.0,65.0,-100.00,SE,125,10.0,20.0,89,-99.99,,,-99.99,,2013-06-13 16:33:00,
2013-06-13 12:43:00,68.0,65.0,-100.00,SE,135,10.0,21.0,89,-99.99,,,-99.99,,2013-06-13 16:43:00,
2013-06-13 13:33:00,68.0,65.0,-100.00,SE,140,16.0,18.0,89,-99.99,,,-99.99,,2013-06-13 17:33:00,
2013-06-13 13:53:00,69.0,66.0,-100.00,SE,140,10.0,16.0,89,-99.99,,,-99.99,,2013-06-13 17:53:00,
2013-06-13 14:02:00,69.0,66.0,-100.00,SE,130,15.0,20.0,89,-99.99,,,-99.99,,2013-06-13 18:02:00,
2013-06-13 14:33:00,70.0,67.0,-100.00,East,90,12.0,16.0,89,-99.99,,,-99.99,,2013-06-13 18:33:00,
2013-06-13 14:52:00,70.0,67.0,-100.00,East,90,7.0,14.0,89,-99.99,,,-99.99,,2013-06-13 18:52:00,
2013-06-13 15:02:00,70.0,67.0,-100.00,ENE,70,5.0,15.0,89,-99.99,,,-99.99,,2013-06-13 19:02:00,
2013-06-13 15:11:00,70.0,67.0,-100.00,SSE,165,6.0,13.0,89,-99.99,,,-99.99,,2013-06-13 19:11:00,
2013-06-13 15:33:00,70.0,67.0,-100.00,SE,135,10.0,16.0,89,-99.99,,,-99.99,,2013-06-13 19:33:00,
2013-06-13 15:43:00,70.0,67.0,-100.00,SE,125,9.0,16.0,89,-99.99,,,-99.99,,2013-06-13 19:43:00,
2013-06-13 15:53:00,70.0,67.0,-100.00,ESE,120,9.0,17.0,89,-99.99,,,-99.99,,2013-06-13 19:53:00,
2013-06-13 16:02:00,70.0,67.0,-100.00,SE,140,10.0,17.0,89,-99.99,,,-99.99,,2013-06-13 20:02:00,
2013-06-13 16:11:00,70.0,67.0,-100.00,East,90,5.0,16.0,89,-99.99,,,-99.99,,2013-06-13 20:11:00,
2013-06-13 16:33:00,70.0,67.0,-100.00,NE,55,10.0,17.0,89,-99.99,,,-99.99,,2013-06-13 20:33:00,
2013-06-13 17:11:00,70.0,67.0,-100.00,ESE,105,8.0,18.0,89,-99.99,,,-99.99,,2013-06-13 21:11:00,
2013-06-13 17:34:00,70.0,67.0,-100.00,ESE,115,7.0,13.0,89,-99.99,,,-99.99,,2013-06-13 21:34:00,
2013-06-13 19:02:00,68.0,65.0,-100.00,East,80,3.0,15.0,89,-99.99,,,-99.99,,2013-06-13 23:02:00,
2013-06-13 19:11:00,68.0,65.0,-100.00,ESE,105,7.0,14.0,89,-99.99,,,-99.99,,2013-06-13 23:11:00,
2013-06-13 20:12:00,67.0,64.0,-100.00,ESE,115,7.0,17.0,89,-99.99,,,-99.99,,2013-06-14 00:12:00,
2013-06-13 20:43:00,66.0,51.0,-100.00,ESE,120,12.0,18.0,58,-99.99,,,-99.99,,2013-06-14 00:43:00,
2013-06-13 20:53:00,66.0,51.0,-100.00,ESE,115,6.0,17.0,58,-99.99,,,-99.99,,2013-06-14 00:53:00,
2013-06-13 21:01:00,66.0,51.0,-100.00,ESE,115,7.0,14.0,58,-99.99,,,-99.99,,2013-06-14 01:01:00,
2013-06-13 21:11:00,66.0,51.0,-100.00,ESE,120,9.0,20.0,58,-99.99,,,-99.99,,2013-06-14 01:11:00,
2013-06-13 21:22:00,66.0,51.0,-100.00,ESE,115,9.0,15.0,58,-99.99,,,-99.99,,2013-06-14 01:22:00,
2013-06-13 21:33:00,64.0,49.0,-100.00,ESE,120,7.0,14.0,58,-99.99,,,-99.99,,2013-06-14 01:33:00,
2013-06-13 21:43:00,64.0,49.0,-100.00,ESE,120,7.0,14.0,58,-99.99,,,-99.99,,2013-06-14 01:43:00,
2013-06-13 21:52:00,64.0,49.0,-100.00,East,80,3.0,12.0,58,-99.99,,,-99.99,,2013-06-14 01:52:00,
2013-06-13 22:02:00,64.0,49.0,-100.00,ESE,105,6.0,15.0,58,-99.99,,,-99.99,,2013-06-14 02:02:00,
2013-06-13 22:11:00,64.0,49.0,-100.00,ESE,115,6.0,16.0,58,-99.99,,,-99.99,,2013-06-14 02:11:00,
2013-06-13 22:22:00,64.0,49.0,-100.00,ESE,115,7.0,13.0,58,-99.99,,,-99.99,,2013-06-14 02:22:00,
2013-06-13 22:32:00,61.0,46.0,-100.00,NE,55,2.0,9.0,58,-99.99,,,-99.99,,2013-06-14 02:32:00,
2013-06-13 22:43:00,61.0,46.0,-100.00,East,95,3.0,10.0,58,-99.99,,,-99.99,,2013-06-14 02:43:00,
2013-06-13 22:52:00,61.0,46.0,-100.00,ENE,75,2.0,8.0,58,-99.99,,,-99.99,,2013-06-14 02:52:00,
2013-06-13 23:02:00,61.0,46.0,-100.00,ENE,70,3.0,7.0,58,-99.99,,,-99.99,,2013-06-14 03:02:00,
2013-06-13 23:12:00,61.0,46.0,-100.00,East,90,2.0,6.0,58,-99.99,,,-99.99,,2013-06-14 03:12:00,
2013-06-13 23:22:00,61.0,46.0,-100.00,ENE,70,2.0,9.0,58,-99.99,,,-99.99,,2013-06-14 03:22:00,
2013-06-13 23:34:00,59.0,44.0,-100.00,NE,35,3.0,8.0,58,-99.99,,,-99.99,,2013-06-14 03:34:00,
2013-06-13 23:43:00,59.0,44.0,-100.00,NE,35,3.0,8.0,58,-99.99,,,-99.99,,2013-06-14 03:43:00,
2013-06-13 23:53:00,59.0,44.0,-100.00,NE,55,2.0,6.0,58,-99.99,,,-99.99,,2013-06-14 03:53:00,